Tracking 25193 objects as of 18-Jan-2022
HD Live streaming from Space Station
objects crossing your sky now

OPS 1948

Track OPS 1948 now!
OPS 1948 is classified as:


NORAD ID: 11558
Int'l Code: 1979-086A
Perigee: 30,425.4 km
Apogee: 41,211.6 km
Inclination: 5.7 °
Period: 1,437.4 minutes
Semi major axis: 42189 km
RCS: Unknown
Launch date: October 1, 1979
Source: United States (US)
Launch site: AIR FORCE EASTERN TEST RANGE (AFETR)
aabbcc
Your satellite tracking list
Your tracking list is empty




NASA's NSSDC Master Catalog

Two Line Element Set (TLE):
1 11558U 79086A   22017.90218678 -.00000377  00000-0  00000-0 0  9991
2 11558   5.7335 357.3672 1278306  64.0855 141.0409  1.00183453 10064
Source of the keplerian elements: McCants